EW5961 Weather Reports


time (UTC)temp
C
wind
direction
speed
KPH
gust
KPH
rain 1hr
cm
rain 24hr
cm
rain mn
cm
humidity
%
barometer
mb
20260508071511 27 130 16.1 27.4 0.00 0.00 0.00 81 1010.3
20260508070009 27 128 16.1 24.1 0.00 0.00 0.00 80 1010.4
20260508064520 27 138 17.7 32.2 0.00 0.00 0.00 80 1010.6
20260508063002 27 140 20.9 25.7 0.00 0.00 0.00 79 1010.9
20260508061603 27 134 20.9 29.0 0.00 0.00 0.00 79 1011.0
20260508060107 28 138 17.7 29.0 0.00 0.00 0.00 78 1011.3
20260508054604 28 134 22.5 32.2 0.00 0.00 0.00 77 1011.5
20260508053102 28 134 19.3 30.6 0.00 0.00 0.00 76 1011.5
20260508051555 28 126 20.9 30.6 0.00 0.00 0.00 76 1011.7
20260508050057 28 130 24.1 35.4 0.00 0.00 0.00 75 1011.6
20260508044554 28 130 25.7 37.0 0.00 0.00 0.00 74 1011.6
20260508043054 29 127 19.3 32.2 0.00 0.00 0.00 73 1011.5
20260508041558 29 84 25.7 38.6 0.00 0.00 0.00 72 1011.6
20260508040055 30 134 27.4 41.8 0.00 0.00 0.00 70 1011.2
20260508034557 30 121 24.1 37.0 0.00 0.00 0.00 69 1011.1
20260508033055 30 123 24.1 33.8 0.00 0.00 0.00 68 1010.9
20260508031551 31 130 19.3 40.2 0.00 0.00 0.00 67 1010.6
20260508030151 31 120 25.7 43.5 0.00 0.00 0.00 66 1010.3
20260508024601 31 137 27.4 41.8 0.00 0.00 0.00 64 1009.7
20260508023050 32 140 19.3 37.0 0.00 0.00 0.00 61 1009.5
20260508021549 32 135 19.3 35.4 0.00 0.00 0.00 59 1009.2
20260508020049 33 125 27.4 48.3 0.00 0.00 0.00 57 1009.0
20260508014547 33 119 22.5 38.6 0.00 0.00 0.00 55 1008.8
20260508013047 33 133 25.7 41.8 0.00 0.00 0.00 54 1008.4
20260508011559 34 105 20.9 29.0 0.00 0.00 0.00 52 1008.1
20260508010057 35 114 17.7 32.2 0.00 0.00 0.00 50 1007.9
20260508004556 35 140 16.1 24.1 0.00 0.00 0.00 49 1007.6
20260508003045 35 138 17.7 30.6 0.00 0.00 0.00 48 1007.7
20260508001546 36 123 14.5 20.9 0.00 0.00 0.00 46 1007.7
20260508000043 36 120 17.7 25.7 0.00 0.00 0.00 45 1007.4
20260507234544 37 135 19.3 24.1 0.00 0.00 0.00 44 1007.4
20260507233042 37 121 14.5 29.0 0.00 0.00 0.00 44 1007.3
20260507231550 37 105 14.5 24.1 0.00 0.00 0.00 43 1007.0
20260507230041 37 143 12.9 25.7 0.00 0.00 0.00 42 1007.0
20260507224553 37 132 14.5 20.9 0.00 0.00 0.00 42 1006.9
20260507223040 37 128 9.7 22.5 0.00 0.00 0.00 41 1006.8
20260507221539 38 103 14.5 22.5 0.00 0.00 0.00 41 1006.8
20260507220039 37 43 14.5 27.4 0.00 0.00 0.00 42 1006.8
20260507214535 38 41 6.4 25.7 0.00 0.00 0.00 41 1007.0
20260507213034 38 105 11.3 22.5 0.00 0.00 0.00 41 1007.1
20260507211532 37 125 8.0 25.7 0.00 0.00 0.00 42 1007.3
20260507210029 37 153 9.7 22.5 0.00 0.00 0.00 42 1007.5
20260507204528 38 134 11.3 22.5 0.00 0.00 0.00 43 1007.7
20260507203025 37 155 11.3 37.0 0.00 0.00 0.00 44 1007.8
20260507201524 37 165 14.5 22.5 0.00 0.00 0.00 42 1008.0
20260507200032 37 148 16.1 30.6 0.00 0.00 0.00 44 1008.2
20260507194619 37 103 12.9 27.4 0.00 0.00 0.00 45 1008.4
20260507193017 37 144 9.7 33.8 0.00 0.00 0.00 46 1008.7
20260507191512 37 146 16.1 22.5 0.00 0.00 0.00 46 1009.0
20260507190020 37 95 17.7 30.6 0.00 0.00 0.00 46 1009.3
20260507184503 36 144 14.5 29.0 0.00 0.00 0.00 48 1009.5
20260507183100 36 113 20.9 32.2 0.00 0.00 0.00 50 1009.9
20260507181558 35 134 11.3 29.0 0.00 0.00 0.00 51 1010.1
20260507180054 36 140 19.3 33.8 0.00 0.00 0.00 51 1010.2
20260507174551 35 144 14.5 27.4 0.00 0.00 0.00 54 1010.6
20260507173053 34 148 16.1 30.6 0.00 0.00 0.00 55 1011.0
20260507171549 34 123 19.3 32.2 0.00 0.00 0.00 53 1011.2
20260507170044 34 104 11.3 30.6 0.00 0.00 0.00 56 1011.1
20260507164539 33 146 14.5 33.8 0.00 0.00 0.00 58 1011.2
20260507163035 33 107 20.9 35.4 0.00 0.00 0.00 59 1011.3
20260507161532 32 107 19.3 27.4 0.00 0.00 0.00 61 1011.7
20260507160037 32 148 22.5 33.8 0.00 0.00 0.00 62 1011.9
20260507154532 32 130 20.9 32.2 0.00 0.00 0.00 63 1012.0
20260507153026 31 125 24.1 35.4 0.00 0.00 0.00 65 1012.0
20260507151523 31 88 19.3 33.8 0.00 0.00 0.00 66 1012.3
20260507150020 31 183 19.3 33.8 0.00 0.00 0.00 67 1012.3
20260507144516 30 143 24.1 38.6 0.00 0.00 0.00 68 1012.2
20260507143012 30 128 24.1 38.6 0.00 0.00 0.00 71 1012.3
20260507141509 29 146 27.4 38.6 0.00 0.00 0.00 73 1012.4
20260507140127 28 111 24.1 38.6 0.00 0.00 0.00 75 1012.4
20260507134501 27 136 19.3 35.4 0.00 0.00 0.00 79 1012.3
20260507133058 27 142 11.3 27.4 0.00 0.00 0.00 81 1012.2
20260507131604 26 138 19.3 32.2 0.00 0.00 0.00 84 1012.2
20260507130103 25 128 14.5 24.1 0.00 0.00 0.00 86 1012.1
20260507124603 25 124 14.5 27.4 0.00 0.00 0.00 87 1011.9
20260507123054 24 138 12.9 20.9 0.00 0.00 0.00 87 1011.6
20260507121543 24 125 11.3 20.9 0.00 0.00 0.00 87 1011.7
20260507120035 24 105 9.7 22.5 0.00 0.00 0.00 87 1011.4
20260507114530 24 123 11.3 16.1 0.00 0.00 0.00 87 1011.2
20260507113033 24 99 9.7 19.3 0.00 0.00 0.00 87 1011.2
20260507111526 24 71 8.0 16.1 0.00 0.00 0.00 87 1011.1
20260507110028 24 119 9.7 16.1 0.00 0.00 0.00 86 1011.0
20260507104625 24 123 9.7 19.3 0.00 0.00 0.00 86 1010.9
20260507103021 24 107 8.0 20.9 0.00 0.00 0.00 86 1010.8
20260507101528 25 125 14.5 22.5 0.00 0.00 0.00 86 1010.6
20260507100025 25 134 12.9 22.5 0.00 0.00 0.00 85 1010.4
20260507094521 25 130 12.9 22.5 0.00 0.00 0.00 85 1010.4
20260507093032 25 132 14.5 22.5 0.00 0.00 0.00 84 1010.4
20260507091514 25 137 14.5 27.4 0.00 0.00 0.00 84 1010.6
20260507090019 25 131 14.5 20.9 0.00 0.00 0.00 83 1010.5
20260507084511 25 123 14.5 20.9 0.00 0.00 0.00 83 1010.5
20260507083015 25 132 14.5 25.7 0.00 0.00 0.00 83 1010.7
20260507081506 25 132 17.7 27.4 0.00 0.00 0.00 82 1010.8
20260507080136 25 137 16.1 24.1 0.00 0.00 0.00 82 1010.8
20260507074505 26 138 12.9 25.7 0.00 0.00 0.00 81 1011.1
20260507073111 26 125 17.7 24.1 0.00 0.00 0.00 80 1011.4
20260507071656 26 135 19.3 25.7 0.00 0.00 0.00 80 1011.3